Flag for Germany Weather past 2 weeks in Wedel, Schleswig-Holstein, Germany

Now
68 °F

Passing clouds.


Feels Like: 68 °F
Forecast: 54 / 64 °F
Wind: 3 mph from North

Location: Hamburg-Finkenwerder

Current Time: Sep 1, 2015 at 7:04:28 AM

Latest Report: Sep 1, 2015 at 6:20 AM


Visibility: N/A

Pressure: 29.68 "Hg

Humidity: 100%

Dew point: 68 °F

Location of WedelLocation

Historic Weather in Wedel — Graph

°F

Wedel temperature yesterday

Maximum temperature yesterday: 82 °F (at 3:50 PM)
Minimum temperature yesterday: 63 °F (at 6:20 AM)
Average temperature yesterday: 74 °F

Past Weeks' High & Low Weather Summary

 TemperatureHumidityPressure
High82 °F (Aug 31, 3:50 PM)100% (Aug 17, 5:50 AM)30.27 "Hg (Aug 17, 5:50 AM)
Low54 °F (Aug 20, 6:20 AM)36% (Aug 21, 4:50 PM)29.56 "Hg (Aug 24, 7:50 PM)
Average67 °F81%29.95 "Hg
* Reported Aug 17 5:50 AM — Aug 31 7:20 PM, Wedel, Weather by CustomWeather, © 2015

Note: Actual official high and low records may vary slightly from our data, if they occured in-between our weather recording intervals... More about our weather records

Advertising

Wedel weather history for previous 24 hours

 ConditionsComfort  
Time TempWeatherWind HumidityBarometerVisibility
7:20 PM
Mon, Aug 31
81 °FPassing clouds.5 mph66%29.71 "HgN/A
6:50 PM81 °FPassing clouds.7 mph66%29.71 "HgN/A
6:20 PM81 °FPassing clouds.8 mph66%29.74 "HgN/A
5:50 PM81 °FPassing clouds.9 mph62%29.74 "HgN/A
5:20 PM82 °FPassing clouds.9 mph58%29.74 "HgN/A
4:50 PM82 °FPassing clouds.9 mph55%29.77 "HgN/A
4:20 PM82 °FPassing clouds.10 mph55%29.77 "HgN/A
3:50 PM82 °FPassing clouds.8 mph55%29.80 "HgN/A
3:20 PM81 °FPassing clouds.8 mph58%29.80 "HgN/A
2:50 PM81 °FPassing clouds.9 mph58%29.83 "HgN/A
2:20 PM79 °FPassing clouds.8 mph65%29.86 "HgN/A
1:50 PM79 °FPassing clouds.7 mph70%29.86 "HgN/A
1:20 PM77 °FPassing clouds.8 mph74%29.89 "HgN/A
12:50 PM75 °FClear.3 mph83%29.89 "Hg6 mi
12:20 PM75 °FClear.6 mph83%29.92 "Hg6 mi
11:50 AM75 °FSunny.5 mph83%29.92 "Hg6 mi
11:20 AM73 °FClear.2 mph89%29.92 "Hg4 mi
10:50 AM70 °FClear.3 mph100%29.92 "Hg4 mi
10:20 AM68 °FPassing clouds.3 mph100%29.92 "Hg4 mi
9:50 AM68 °FClear.3 mph100%29.95 "Hg4 mi
9:20 AM66 °FFog.3 mph100%29.95 "Hg3 mi
8:50 AM66 °FFog.2 mph100%29.95 "Hg3 mi
8:20 AM64 °FFog.3 mph100%29.92 "Hg2 mi
7:50 AM64 °FFog.6 mph100%29.92 "Hg1 mi
7:20 AM63 °FFog.2 mph100%29.95 "Hg1 mi
Weather by CustomWeather, © 2015

See weather overviewHow to use our weather pages